Regional Weather Roundup
Issued by NWS Upton, NY

Current Version | Previous Version | Text Only | Print | Product List | Glossary Off
Versions: 1 2 3 4 5 6 7 8 9 10 11 12 13 14 15 16 17 18 19 20 21 22 23 24 25 26 27 28

000
ASUS41 KOKX 310605
RWROKX

REGIONAL WEATHER ROUNDUP
NATIONAL WEATHER SERVICE NEW YORK NY
200 AM EDT FRI OCT 31 2014

NOTE: "FAIR" INDICATES FEW OR NO CLOUDS BELOW 12,000 FEET WITH NO
SIGNIFICANT WEATHER AND/OR OBSTRUCTIONS TO VISIBILITY.

NYZ071-072-176-178-NJZ106-104-310700-
NEW YORK CITY METRO AREA


CITY           SKY/WX    TMP DP  RH WIND       PRES   REMARKS
CENTRAL PARK   CLEAR     47  35  63 CALM      30.04S
LAGUARDIA APRT PTCLDY    48  37  65 N8        30.02S
KENNEDY INTL   PTCLDY    47  37  68 N7        30.02S
NEWARK/LIBERTY PTCLDY    44  33  65 N8        30.02S
BRNX BOT. GARD   N/A     43  36  75 N2        30.03R
TETERBORO      CLEAR     43  34  70 CALM      30.02S
$$

NYZ177-179-078>081-310700-
LONG ISLAND NEW YORK

CITY           SKY/WX    TMP DP  RH WIND       PRES   REMARKS
FARMINGDALE    MOCLDY    44  39  82 NE6       30.01S
ISLIP          MOCLDY    46  37  71 N7        30.00R
SHIRLEY        CLEAR     43  37  79 N5        30.02R
WESTHAMPTON    CLEAR     36  33  89 N6        30.02S WCI  31
MONTAUK POINT    N/A     51  40  65 N8        30.01R
$$

NYZ052-065-067-310700-
HUDSON VALLEY

CITY           SKY/WX    TMP DP  RH WIND       PRES   REMARKS
WHITE PLAINS   CLEAR     42  34  73 N6        30.00F
NEWBURGH       NOT AVBL
MONTGOMERY     MOCLDY    36  33  89 CALM      30.02S
POUGHKEEPSIE   MOCLDY    43  35  73 N3        30.03S
ALBANY         CLEAR     34  31  88 CALM      30.04S
$$

NJZ001-105-106-008-010-013-015-019>022-104-310700-
NEW JERSEY

CITY           SKY/WX    TMP DP  RH WIND       PRES   REMARKS
NEWARK/LIBERTY PTCLDY    44  33  65 N8        30.02S
TETERBORO      CLEAR     43  34  70 CALM      30.02S
CALDWELL       CLEAR     36  32  85 CALM      30.03S
MORRISTOWN     CLEAR     34  32  93 CALM      30.03S
SOMERVILLE     CLEAR     32  30  92 CALM      30.01S
SUSSEX         CLEAR     31  29  92 CALM      30.03R
ANDOVER          N/A     32  31  96 CALM      30.03S
TRENTON        CLEAR     38  32  79 NW6       30.02S WCI  33
MILLVILLE      CLEAR     35  33  92 CALM      30.03S
ATLANTIC CITY  CLEAR     37  34  89 NW3       30.02F
WRIGHTSTOWN    CLEAR     37  35  91 CALM      30.00F
TOMS RIVER     CLEAR     30  28  93 CALM      30.03S
BELMAR         CLEAR     39  30  70 NW3       30.01S
$$

PAZ047>061-062-071-310700-
EASTERN PENNSYLVANIA

CITY           SKY/WX    TMP DP  RH WIND       PRES   REMARKS
PHILADELPHIA   CLEAR     44  35  70 NW3       30.04S
ALLENTOWN      CLEAR     36  31  82 CALM      30.04S
SCRANTON       CLEAR     36  30  79 E6        30.02R WCI  31
$$

CTZ002-004>006-009-010-012-RIZ004-006-007-MAZ004-011-015-310700-
SOUTHERN NEW ENGLAND
 IN CT

CITY           SKY/WX    TMP DP  RH WIND       PRES   REMARKS
BRADLEY INTL   CLEAR     36  32  85 W3        30.01S
HARTFORD       CLEAR     38  36  92 SE8       30.02S WCI  32
DANBURY        CLOUDY    43  32  65 CALM      30.03S
WTRBRY/OXFORD  MOCLDY    39  28  65 N8        30.03S WCI  34
BRIDGEPORT     CLEAR     45  34  65 N12       30.01S
MERIDEN        CLEAR     36  33  89 CALM      30.02F
NEW HAVEN      CLEAR     46  34  62 N8        30.02S
CHESTER        FAIR      43  34  70 NW6       30.01S
GROTON         CLEAR     42  36  79 N8        30.00R
WILLIMANTIC    CLOUDY    36  33  89 CALM      30.01F

 IN RI

CITY           SKY/WX    TMP DP  RH WIND       PRES   REMARKS
PROVIDENCE     MOCLDY    42  36  79 CALM      30.00S
BLOCK ISLAND   CLEAR     48  37  66 N7        29.99R
WESTERLY       CLEAR     38  34  85 CALM      30.00S

 IN MA

CITY           SKY/WX    TMP DP  RH WIND       PRES   REMARKS
BOSTON         CLOUDY    46  37  71 N8        30.00S
WORCESTER      MOCLDY    41  35  79 NW3       29.99S
WESTFIELD      CLEAR     41  32  70 NW5       30.01F
PROVINCETOWN   CLOUDY    52  -2  11 NE10      29.99S
NANTUCKET      CLEAR     47  41  80 N5        29.96F
$$

ANZ330-335-338-340-345-350-353-355-310700-
COASTAL MARINE OBSERVATIONS


STATION/POSITION TIME  SKY/WX   TEMP    WIND        PRES    VSBY  WAVE
                                AIR SEA DIR/SP/G                  HT/PER
                 (UTC)          (F)     (DEG/KT/KT) (MB)    (MI)  (FT/S)
NY HARB ENTRANCE 0600            51 60  360/ 14/ 17 1016.2          2/ 3
4S FIRE IS       0600               62                N/A           2/ 7
20S FIRE ISLAND  0600            53 62   10/  6/  8 1015.8          2/ 4
23SW MTP         0600                                 N/A           2/ 3
HUDSON CANYON    0600            56 64  340/ 10/ 12 1014.9          2/ 4
EXECUTION ROCKS  0600            49 60   20/ 10/ 14   N/A
WESTERN LI SOUND 0500            48      20/ 10/ 12   N/A           0
CENTRAL LI SOUND 0500            50 61  360/ 16/ 17   N/A           2/ 3
EASTERN LI SOUND 0500            50 62  360/ 14/ 17   N/A
ROBBINS REEF     0600            48     360/  8/  9 1015.3
$$


>>>>>>>>>>>>>>>>>>>>>>>>>>>> KEY <<<<<<<<<<<<<<<<<<<<<<<<<<<
>                                                          <
>     SKY/WX - SKY CONDITION/PRESENT WEATHER               <
>     TMP    - TEMPERATURE IN FAHRENHEIT                   <
>     DP     - DEWPOINT IN FAHRENHEIT                      <
>     RH     - RELATIVE HUMIDITY IN PERCENT                <
>     WIND   - DIRECTION AND SPEED IN MPH                  <
>     PRES   - MEAN SEA LEVEL PRESSURE IN INCHES OF HG     <
>     WCI    - WIND CHILL INDEX                            <
>     VSB    - VISIBILITY IN MILES                         <
>     HX     - HEAT INDEX                                  <
>     TC     - TEMPERATURE IN CELSIUS                      <
>     VRB    - VARIABLE WIND DIRECTION                     <
>                                                          <
>>>>>>>>>>>>>>>>>>>>>>>>>>>> KEY <<<<<<<<<<<<<<<<<<<<<<<<<<<





USA.gov is the U.S. government's official web portal to all federal, state and local government web resources and services.